Location: Vesunti
(61.5000°N, 22.8333°E)
Time: 18:24:51
(UTC+00:00)

Okean O Rocket - Pass Details

Date: 17 February 2020
Orbit: 622 x 645 km, 98.2° (Epoch: 28 March)

Event Time Altitude Azimuth Distance (km) Brightness Sun altitude
Rises 03:15:08 0° 22° (NNE) 2,950 5.5 -21.1°
Reaches altitude 10° 03:17:51 10° 39° (NE) 2,031 4.9 -20.8°
Maximum altitude 03:21:11 21° 88° (E) 1,445 4.3 -20.4°
Drops below altitude 10° 03:24:28 10° 137° (SE) 2,009 4.6 -20.0°
Sets 03:27:08 0° 154° (SSE) 2,908 5.2 -19.7°
